Flag for Canada Weather past 2 weeks in Paradise, Newfoundland and Labrador, Canada

Now
46 °F

Partly sunny.


Feels Like: 44 °F
Forecast: 38 / 50 °F
Wind: 5 mph from Southeast

Location: St. John's

Current Time: Oct 23, 2014 at 10:18:17 AM

Latest Report: Oct 23, 2014 at 9:30 AM


Visibility: 15 mi

Pressure: 30.42 "Hg

Humidity: 82%

Dew point: 41 °F

Location of ParadiseLocation

Historic Weather in Paradise — Graph

°F

Paradise temperature yesterday

Maximum temperature yesterday: 48 °F (at 11:30 AM)
Minimum temperature yesterday: 37 °F (at 7:30 AM)
Average temperature yesterday: 42 °F

Past Weeks' High & Low Weather Summary

 TemperatureHumidityPressure
High68 °F (Oct 19, 1:30 PM)100% (Oct 9, 1:21 AM)30.48 "Hg (Oct 9, 1:21 AM)
Low36 °F (Oct 17, 4:30 AM)55% (Oct 10, 1:30 PM)29.11 "Hg (Oct 19, 7:30 AM)
Average50 °F87%29.99 "Hg
* Reported Oct 8 8:30 AM — Oct 23 8:30 AM, Paradise, Weather by CustomWeather, © 2014

Note: Actual official high and low records may vary slightly from our data, if they occured in-between our weather recording intervals... More about our weather records

Advertising

Paradise weather history for previous 24 hours

 ConditionsComfort  
Time TempWeatherWind HumidityBarometerVisibility
8:30 AM
Oct 23
37 °FOvercast.2 mph93%30.43 "Hg15 mi
7:30 AM37 °FPassing clouds.2 mph93%30.42 "Hg15 mi
6:30 AM39 °FPassing clouds.No wind87%30.42 "Hg15 mi
5:30 AM36 °FPassing clouds.No wind93%30.43 "Hg15 mi
4:30 AM37 °FPassing clouds.2 mph93%30.44 "Hg15 mi
3:30 AM36 °FPassing clouds.3 mph100%30.45 "Hg15 mi
2:30 AM37 °FPassing clouds.3 mph93%30.46 "Hg15 mi
1:30 AM36 °FPassing clouds.2 mph100%30.47 "Hg15 mi
12:30 AM36 °FPassing clouds.2 mph93%30.47 "Hg15 mi
11:30 PM
Oct 22
39 °FPassing clouds.3 mph93%30.47 "Hg15 mi
10:30 PM39 °FPassing clouds.3 mph93%30.47 "Hg15 mi
9:30 PM39 °FPassing clouds.5 mph93%30.48 "Hg15 mi
8:30 PM39 °FPassing clouds.5 mph93%30.48 "Hg15 mi
7:30 PM41 °FPassing clouds.5 mph87%30.48 "Hg15 mi
6:30 PM41 °FPartly cloudy.6 mph93%30.48 "Hg15 mi
5:30 PM45 °FBroken clouds.7 mph81%30.47 "Hg15 mi
4:30 PM45 °FMore clouds than sun.7 mph81%30.45 "Hg15 mi
3:30 PM46 °FBroken clouds.8 mph76%30.46 "Hg15 mi
2:30 PM48 °FMostly cloudy.9 mph66%30.45 "Hg15 mi
1:30 PM48 °FMostly cloudy.6 mph66%30.46 "Hg15 mi
12:30 PM46 °FPartly sunny.8 mph76%30.46 "Hg15 mi
11:30 AM48 °FBroken clouds.6 mph66%30.46 "Hg15 mi
10:30 AM46 °FBroken clouds.3 mph76%30.45 "Hg15 mi
Weather by CustomWeather, © 2014

See weather overviewHow to use our weather pages